| time (UTC) | temp C | wind direction | speed KPH | gust KPH | rain 1hr cm | rain 24hr cm | rain mn cm | humidity % | barometer mb |
| 20260505070045 | 3 | 0 | 0.0 | 0.0 | 0.00 | 0.58 | 0.00 | 92 | 1010.6 |
| 20260505064541 | 3 | 0 | 0.0 | 3.2 | 0.00 | 0.74 | 0.00 | 92 | 1010.5 |
| 20260505063042 | 4 | 0 | 0.0 | 3.2 | 0.00 | 0.74 | 0.00 | 92 | 1010.4 |
| 20260505061559 | 5 | 0 | 0.0 | 1.6 | 0.00 | 0.74 | 0.00 | 92 | 1010.2 |
| 20260505060033 | 5 | 0 | 0.0 | 3.2 | 0.00 | 0.74 | 0.00 | 91 | 1010.2 |
| 20260505054556 | 6 | 209 | 1.6 | 8.0 | 0.00 | 0.97 | 0.00 | 91 | 1010.0 |
| 20260505053040 | 6 | 287 | 4.8 | 11.3 | 0.00 | 0.97 | 0.00 | 91 | 1009.9 |
| 20260505051538 | 6 | 244 | 8.0 | 12.9 | 0.00 | 0.97 | 0.00 | 91 | 1009.7 |
| 20260505041542 | 6 | 241 | 8.0 | 16.1 | 0.00 | 1.12 | 0.00 | 89 | 1009.1 |
| 20260505040041 | 6 | 243 | 8.0 | 24.1 | 0.00 | 1.12 | 0.00 | 90 | 1008.9 |
| 20260505034538 | 6 | 253 | 6.4 | 17.7 | 0.00 | 1.22 | 0.00 | 89 | 1008.7 |
| 20260505033048 | 6 | 224 | 8.0 | 19.3 | 0.00 | 1.22 | 0.00 | 89 | 1008.5 |
| 20260505031540 | 6 | 255 | 6.4 | 17.7 | 0.00 | 1.22 | 0.00 | 88 | 1008.3 |
| 20260505030043 | 6 | 311 | 6.4 | 14.5 | 0.00 | 1.22 | 0.00 | 88 | 1008.1 |
| 20260505024602 | 6 | 282 | 6.4 | 12.9 | 0.00 | 1.24 | 1.22 | 90 | 1007.8 |
| 20260505023040 | 6 | 290 | 1.6 | 8.0 | 0.00 | 1.24 | 1.22 | 90 | 1007.7 |
| 20260505021556 | 5 | 273 | 3.2 | 8.0 | 0.00 | 1.24 | 1.22 | 91 | 1007.5 |
| 20260505020045 | 5 | 0 | 1.6 | 8.0 | 0.00 | 1.24 | 1.22 | 90 | 1007.2 |
| 20260505014539 | 6 | 0 | 0.0 | 4.8 | 0.00 | 1.27 | 1.22 | 90 | 1007.2 |
| 20260505013038 | 6 | 295 | 1.6 | 4.8 | 0.00 | 1.27 | 1.22 | 89 | 1007.0 |
| 20260505011549 | 6 | 236 | 0.0 | 8.0 | 0.00 | 1.27 | 1.22 | 88 | 1006.8 |
| 20260505010043 | 6 | 224 | 3.2 | 8.0 | 0.00 | 1.27 | 1.22 | 88 | 1006.4 |
| 20260505004544 | 6 | 229 | 1.6 | 8.0 | 0.00 | 1.30 | 1.22 | 85 | 1006.3 |
| 20260505003038 | 7 | 248 | 3.2 | 9.7 | 0.00 | 1.30 | 1.22 | 83 | 1006.1 |
| 20260505001539 | 7 | 223 | 4.8 | 9.7 | 0.00 | 1.30 | 1.22 | 82 | 1005.9 |
| 20260505000035 | 7 | 263 | 8.0 | 17.7 | 0.00 | 1.30 | 1.22 | 81 | 1005.8 |
| 20260504234533 | 7 | 227 | 9.7 | 22.5 | 0.00 | 1.40 | 1.22 | 80 | 1005.6 |
| 20260504233054 | 8 | 157 | 8.0 | 24.1 | 0.00 | 1.40 | 1.22 | 79 | 1005.4 |
| 20260504231541 | 8 | 242 | 9.7 | 22.5 | 0.00 | 1.40 | 1.22 | 79 | 1005.2 |
| 20260504230039 | 8 | 245 | 11.3 | 22.5 | 0.00 | 1.40 | 1.22 | 78 | 1005.2 |
| 20260504224538 | 8 | 204 | 9.7 | 22.5 | 0.00 | 1.50 | 1.22 | 77 | 1005.0 |
| 20260504223036 | 8 | 292 | 9.7 | 22.5 | 0.00 | 1.50 | 1.22 | 76 | 1004.9 |
| 20260504221546 | 9 | 249 | 12.9 | 24.1 | 0.00 | 1.50 | 1.22 | 77 | 1004.7 |
| 20260504220056 | 9 | 295 | 9.7 | 22.5 | 0.00 | 1.50 | 1.22 | 79 | 1004.6 |
| 20260504214542 | 8 | 265 | 9.7 | 29.0 | 0.00 | 1.83 | 1.22 | 78 | 1004.5 |
| 20260504213038 | 9 | 266 | 11.3 | 29.0 | 0.00 | 1.83 | 1.22 | 76 | 1004.5 |
| 20260504211535 | 9 | 293 | 14.5 | 33.8 | 0.00 | 1.83 | 1.22 | 73 | 1004.6 |
| 20260504210044 | 10 | 253 | 14.5 | 29.0 | 0.00 | 1.83 | 1.22 | 70 | 1004.5 |
| 20260504204557 | 10 | 261 | 14.5 | 37.0 | 0.00 | 2.03 | 1.22 | 68 | 1004.3 |
| 20260504203038 | 10 | 229 | 16.1 | 29.0 | 0.00 | 2.03 | 1.22 | 63 | 1004.1 |
| 20260504201538 | 11 | 229 | 12.9 | 45.1 | 0.00 | 2.03 | 1.22 | 56 | 1004.1 |
| 20260504200043 | 11 | 282 | 14.5 | 30.6 | 0.00 | 2.03 | 1.22 | 57 | 1004.0 |
| 20260504194544 | 12 | 270 | 16.1 | 32.2 | 0.00 | 2.34 | 1.22 | 55 | 1003.5 |
| 20260504193042 | 11 | 219 | 14.5 | 35.4 | 0.00 | 2.34 | 1.22 | 58 | 1003.5 |
| 20260504191541 | 12 | 237 | 12.9 | 35.4 | 0.00 | 2.34 | 1.22 | 55 | 1003.4 |
| 20260504190039 | 12 | 257 | 20.9 | 40.2 | 0.00 | 2.34 | 1.22 | 52 | 1003.3 |
| 20260504184538 | 11 | 288 | 17.7 | 43.5 | 0.00 | 2.67 | 1.22 | 56 | 1003.4 |
| 20260504183040 | 10 | 279 | 17.7 | 41.8 | 0.00 | 2.67 | 1.22 | 62 | 1003.6 |
| 20260504181545 | 10 | 248 | 19.3 | 38.6 | 0.00 | 2.67 | 1.22 | 61 | 1003.6 |
| 20260504180039 | 10 | 266 | 24.1 | 45.1 | 0.00 | 2.67 | 1.22 | 59 | 1003.7 |
| 20260504174538 | 11 | 245 | 19.3 | 38.6 | 0.00 | 2.87 | 1.22 | 58 | 1003.6 |
| 20260504173039 | 10 | 267 | 24.1 | 43.5 | 0.00 | 2.87 | 1.22 | 60 | 1003.5 |
| 20260504171539 | 10 | 270 | 20.9 | 43.5 | 0.00 | 2.87 | 1.22 | 61 | 1003.6 |
| 20260504081549 | 2 | 248 | 16.1 | 29.0 | 0.08 | 2.62 | 0.79 | 93 | 994.2 |